EZS59MQ EGKK-LSGG

Flight info

Callsign EZS59MQ
Flight time N/A
Altitude 37000
Route BOGNA L612 BENBO UL612 RESMI UM975 PEKIM DCT PILUL DCT PIMUP/N0425F270 DCT PIXIS DCT PIBAT/N0399F230 DCT LUSAR
Aircraft A20N/M-SDE2E3FGHIRWXY/LB1

Departure

Time N/A
Airport London Gatwick Airport (EGKK)

Arrival

Time 2026-05-03 21:13
Airport Geneva International Airport (LSGG)
Time Latitude Longitude Altitude Speed Heading
2026-05-03 20:15 49.76729 0.73261 35468 ft 436 kts 146°
2026-05-03 20:15 49.74377 0.76218 35666 ft 436 kts 146°
2026-05-03 20:15 49.72020 0.79176 35885 ft 436 kts 146°
2026-05-03 20:15 49.69689 0.82096 36078 ft 437 kts 146°
2026-05-03 20:16 49.67327 0.85050 36266 ft 438 kts 146°
2026-05-03 20:16 49.64959 0.88007 36466 ft 438 kts 146°
2026-05-03 20:16 49.62582 0.90972 36624 ft 438 kts 146°
2026-05-03 20:16 49.60208 0.93930 36835 ft 439 kts 146°
2026-05-03 20:17 49.57831 0.96888 36941 ft 439 kts 146°
2026-05-03 20:17 49.53080 1.02790 36954 ft 438 kts 146°
2026-05-03 20:18 49.48338 1.08668 36963 ft 438 kts 146°
2026-05-03 20:18 49.43581 1.14545 36966 ft 438 kts 146°
2026-05-03 20:19 49.38859 1.20365 36966 ft 438 kts 146°
2026-05-03 20:19 49.34103 1.26214 36969 ft 438 kts 146°
2026-05-03 20:20 49.29342 1.32057 36959 ft 438 kts 146°
2026-05-03 20:20 49.24574 1.37895 36969 ft 438 kts 147°
2026-05-03 20:21 49.19813 1.43706 36952 ft 438 kts 147°
2026-05-03 20:21 49.15069 1.49482 36936 ft 439 kts 147°
2026-05-03 20:22 49.10289 1.55287 36955 ft 439 kts 147°
2026-05-03 20:22 49.05506 1.61081 36937 ft 437 kts 147°
2026-05-03 20:23 49.00749 1.66832 36938 ft 436 kts 147°
2026-05-03 20:23 48.96017 1.72533 36937 ft 436 kts 147°
2026-05-03 20:24 48.91258 1.78256 36936 ft 437 kts 147°
2026-05-03 20:24 48.86483 1.83982 36945 ft 437 kts 147°
2026-05-03 20:25 48.81711 1.89691 36933 ft 436 kts 147°
2026-05-03 20:25 48.76939 1.95386 36933 ft 436 kts 147°
2026-05-03 20:26 48.72170 2.01063 36931 ft 436 kts 147°
2026-05-03 20:26 48.67400 2.06727 36929 ft 435 kts 147°
2026-05-03 20:27 48.62678 2.12320 36921 ft 435 kts 148°
2026-05-03 20:27 48.58012 2.18212 36928 ft 441 kts 141°
2026-05-03 20:28 48.53976 2.25379 36943 ft 453 kts 130°
2026-05-03 20:28 48.50417 2.33229 36950 ft 453 kts 130°
2026-05-03 20:29 48.46839 2.41047 36946 ft 453 kts 130°
2026-05-03 20:29 48.43247 2.48841 36953 ft 453 kts 130°
2026-05-03 20:30 48.39667 2.56582 36939 ft 453 kts 130°
2026-05-03 20:30 48.36065 2.64349 36941 ft 453 kts 130°
2026-05-03 20:31 48.32450 2.72122 36940 ft 453 kts 130°
2026-05-03 20:31 48.28728 2.79748 36946 ft 450 kts 136°
2026-05-03 20:32 48.24337 2.86321 36954 ft 443 kts 146°
2026-05-03 20:32 48.19497 2.91931 36973 ft 442 kts 148°
2026-05-03 20:33 48.14619 2.97555 36975 ft 443 kts 148°
2026-05-03 20:33 48.09707 3.03044 36968 ft 437 kts 152°
2026-05-03 20:34 48.04412 3.07333 36970 ft 430 kts 162°
2026-05-03 20:34 47.98891 3.10770 36974 ft 429 kts 162°
2026-05-03 20:35 47.93385 3.14219 36974 ft 429 kts 162°
2026-05-03 20:35 47.87880 3.17673 36974 ft 429 kts 162°
2026-05-03 20:36 47.82382 3.21116 36980 ft 429 kts 162°
2026-05-03 20:36 47.76875 3.24556 36981 ft 429 kts 162°
2026-05-03 20:37 47.71366 3.27989 36986 ft 429 kts 162°
2026-05-03 20:37 47.65893 3.31392 36991 ft 429 kts 162°
2026-05-03 20:38 47.60393 3.34804 36989 ft 428 kts 162°
2026-05-03 20:38 47.54888 3.38212 36992 ft 428 kts 162°
2026-05-03 20:39 47.49397 3.41603 37000 ft 427 kts 162°
2026-05-03 20:39 47.43912 3.44983 36998 ft 427 kts 162°
2026-05-03 20:40 47.38415 3.48364 36999 ft 427 kts 162°
2026-05-03 20:40 47.32965 3.51708 36978 ft 427 kts 162°
2026-05-03 20:41 47.27489 3.55060 36993 ft 426 kts 162°
2026-05-03 20:41 47.22001 3.58412 36992 ft 426 kts 162°
2026-05-03 20:42 47.16521 3.61751 36995 ft 426 kts 162°
2026-05-03 20:42 47.11038 3.65085 36985 ft 426 kts 162°
2026-05-03 20:43 47.05557 3.68410 36924 ft 427 kts 162°
2026-05-03 20:43 47.02844 3.70054 36702 ft 424 kts 162°
2026-05-03 20:43 47.00088 3.71723 36233 ft 423 kts 162°
2026-05-03 20:43 46.97443 3.73546 35552 ft 429 kts 154°
2026-05-03 20:44 46.95043 3.76217 34807 ft 440 kts 141°
2026-05-03 20:44 46.93051 3.79698 34038 ft 452 kts 128°
2026-05-03 20:44 46.91575 3.83835 33173 ft 463 kts 117°
2026-05-03 20:44 46.90418 3.88244 32355 ft 466 kts 115°
2026-05-03 20:45 46.89322 3.92704 31576 ft 467 kts 114°
2026-05-03 20:45 46.88206 3.97178 30760 ft 468 kts 115°
2026-05-03 20:45 46.87063 4.01634 30020 ft 468 kts 115°
2026-05-03 20:45 46.85903 4.06061 29375 ft 463 kts 115°
2026-05-03 20:46 46.84748 4.10421 28671 ft 459 kts 115°
2026-05-03 20:46 46.83606 4.14700 28095 ft 454 kts 116°
2026-05-03 20:46 46.82461 4.18979 27514 ft 449 kts 116°
2026-05-03 20:46 46.81327 4.23207 26949 ft 444 kts 116°
2026-05-03 20:47 46.80370 4.27502 26386 ft 444 kts 108°
2026-05-03 20:47 46.79719 4.31898 25838 ft 441 kts 106°
2026-05-03 20:47 46.79094 4.36262 25274 ft 437 kts 106°
2026-05-03 20:47 46.78476 4.40526 24741 ft 433 kts 107°
2026-05-03 20:48 46.77852 4.44813 24219 ft 429 kts 107°
2026-05-03 20:48 46.77231 4.49053 23666 ft 425 kts 107°
2026-05-03 20:48 46.76612 4.53263 23053 ft 422 kts 107°
2026-05-03 20:48 46.75996 4.57432 22515 ft 417 kts 107°
2026-05-03 20:49 46.75389 4.61540 21984 ft 412 kts 107°
2026-05-03 20:49 46.74788 4.65592 21448 ft 407 kts 107°
2026-05-03 20:49 46.74191 4.69606 20918 ft 402 kts 106°
2026-05-03 20:49 46.73601 4.73565 20388 ft 398 kts 106°
2026-05-03 20:50 46.73213 4.76164 20067 ft 395 kts 106°
2026-05-03 20:50 46.72631 4.80052 19559 ft 391 kts 106°
2026-05-03 20:50 46.72053 4.83901 19068 ft 386 kts 106°
2026-05-03 20:50 46.71480 4.87701 18572 ft 382 kts 105°
2026-05-03 20:51 46.70723 4.92700 17772 ft 379 kts 105°
2026-05-03 20:51 46.70340 4.95229 17391 ft 377 kts 105°
2026-05-03 20:51 46.69776 4.98950 16841 ft 374 kts 105°
2026-05-03 20:51 46.69217 5.02637 16276 ft 371 kts 104°
2026-05-03 20:52 46.68661 5.06296 15751 ft 368 kts 104°
2026-05-03 20:52 46.68116 5.09874 15231 ft 365 kts 104°
2026-05-03 20:52 46.67566 5.13469 14718 ft 363 kts 104°
2026-05-03 20:52 46.67012 5.17089 14204 ft 360 kts 104°
2026-05-03 20:53 46.66479 5.20584 13707 ft 357 kts 104°
2026-05-03 20:53 46.65949 5.24106 13180 ft 354 kts 104°
2026-05-03 20:53 46.65425 5.27597 12646 ft 351 kts 104°
2026-05-03 20:53 46.64905 5.31067 12094 ft 349 kts 105°
2026-05-03 20:54 46.64385 5.34507 11583 ft 347 kts 105°
2026-05-03 20:54 46.63353 5.41296 10619 ft 341 kts 105°
2026-05-03 20:54 46.62844 5.44638 10314 ft 333 kts 105°
2026-05-03 20:55 46.62354 5.47859 10194 ft 319 kts 105°
2026-05-03 20:55 46.61880 5.50949 10095 ft 306 kts 105°
2026-05-03 20:55 46.61420 5.53909 9958 ft 294 kts 105°
2026-05-03 20:55 46.60970 5.56787 9586 ft 291 kts 106°
2026-05-03 20:56 46.60528 5.59613 9189 ft 289 kts 106°
2026-05-03 20:56 46.60080 5.62477 8750 ft 289 kts 107°
2026-05-03 20:56 46.59636 5.65320 8348 ft 287 kts 107°
2026-05-03 20:56 46.59197 5.68138 8082 ft 282 kts 108°
2026-05-03 20:57 46.58756 5.70945 8022 ft 287 kts 108°
2026-05-03 20:57 46.58309 5.73776 8024 ft 287 kts 108°
2026-05-03 20:57 46.57864 5.76599 8021 ft 287 kts 108°
2026-05-03 20:57 46.57389 5.79409 8017 ft 285 kts 115°
2026-05-03 20:58 46.56435 5.81852 8029 ft 274 kts 137°
2026-05-03 20:58 46.54989 5.83584 8037 ft 269 kts 150°
2026-05-03 20:58 46.53445 5.85118 8040 ft 268 kts 150°
2026-05-03 20:58 46.51909 5.86656 8036 ft 268 kts 150°
2026-05-03 20:59 46.50390 5.88183 8032 ft 268 kts 150°
2026-05-03 20:59 46.48855 5.89728 8039 ft 268 kts 150°
2026-05-03 20:59 46.47322 5.91271 8033 ft 269 kts 150°
2026-05-03 20:59 46.45782 5.92815 8035 ft 268 kts 150°
2026-05-03 21:00 46.44248 5.94353 8041 ft 268 kts 150°
2026-05-03 21:00 46.43229 5.95372 8041 ft 268 kts 150°
2026-05-03 21:00 46.41178 5.97426 8038 ft 268 kts 149°
2026-05-03 21:00 46.39649 5.98951 8060 ft 265 kts 149°
2026-05-03 21:01 46.38130 6.00467 8067 ft 266 kts 149°
2026-05-03 21:01 46.36766 6.02258 8057 ft 273 kts 129°
2026-05-03 21:01 46.36023 6.04843 8058 ft 287 kts 102°
2026-05-03 21:01 46.36136 6.07738 8072 ft 293 kts 76°
2026-05-03 21:02 46.37113 6.10344 8082 ft 299 kts 52°
2026-05-03 21:02 46.38571 6.12519 8063 ft 301 kts 44°
2026-05-03 21:02 46.40122 6.14557 8071 ft 301 kts 44°
2026-05-03 21:02 46.41672 6.16617 8045 ft 303 kts 45°
2026-05-03 21:03 46.43200 6.18731 8041 ft 302 kts 46°
2026-05-03 21:03 46.44688 6.20861 8046 ft 304 kts 46°
2026-05-03 21:03 46.46155 6.23008 8023 ft 301 kts 47°
2026-05-03 21:03 46.47619 6.25172 7822 ft 300 kts 47°
2026-05-03 21:04 46.49080 6.27341 7512 ft 299 kts 47°
2026-05-03 21:04 46.50529 6.29492 7208 ft 296 kts 47°
2026-05-03 21:04 46.51943 6.31590 7076 ft 285 kts 47°
2026-05-03 21:04 46.53298 6.33599 7048 ft 270 kts 47°
2026-05-03 21:05 46.54586 6.35511 7055 ft 264 kts 48°
2026-05-03 21:05 46.55637 6.37773 7055 ft 286 kts 73°
2026-05-03 21:05 46.55925 6.40624 7049 ft 285 kts 100°
2026-05-03 21:05 46.55345 6.43247 7044 ft 263 kts 128°
2026-05-03 21:06 46.54113 6.44976 7044 ft 235 kts 157°
2026-05-03 21:06 46.52591 6.45463 7052 ft 226 kts 187°
2026-05-03 21:06 46.51035 6.45144 7048 ft 225 kts 189°
2026-05-03 21:06 46.49510 6.44911 6979 ft 222 kts 186°
2026-05-03 21:07 46.47966 6.44752 6856 ft 224 kts 192°
2026-05-03 21:07 46.46520 6.43939 6731 ft 224 kts 212°
2026-05-03 21:07 46.45293 6.42548 6617 ft 225 kts 221°
2026-05-03 21:07 46.44182 6.40951 6478 ft 224 kts 224°
2026-05-03 21:08 46.43122 6.39369 6357 ft 213 kts 224°
2026-05-03 21:08 46.42082 6.37834 6082 ft 214 kts 224°
2026-05-03 21:08 46.41041 6.36294 5800 ft 211 kts 224°
2026-05-03 21:08 46.40018 6.34783 5537 ft 211 kts 224°
2026-05-03 21:09 46.38983 6.33254 5260 ft 214 kts 224°
2026-05-03 21:09 46.37945 6.31721 4982 ft 212 kts 224°
2026-05-03 21:09 46.36920 6.30208 4700 ft 209 kts 225°
2026-05-03 21:09 46.35913 6.28721 4399 ft 206 kts 225°
2026-05-03 21:10 46.34916 6.27250 4147 ft 203 kts 225°
2026-05-03 21:10 46.33943 6.25816 3883 ft 201 kts 225°
2026-05-03 21:10 46.32969 6.24380 3619 ft 199 kts 225°
2026-05-03 21:10 46.32009 6.22966 3402 ft 191 kts 225°
2026-05-03 21:11 46.31103 6.21630 3132 ft 181 kts 225°
2026-05-03 21:11 46.30242 6.20361 2883 ft 172 kts 225°
2026-05-03 21:11 46.29422 6.19155 2648 ft 163 kts 225°
2026-05-03 21:11 46.28658 6.18031 2434 ft 150 kts 225°
2026-05-03 21:12 46.27963 6.17011 2246 ft 136 kts 225°
2026-05-03 21:12 46.27290 6.16045 2054 ft 136 kts 226°
2026-05-03 21:12 46.26634 6.15059 1906 ft 135 kts 227°
2026-05-03 21:12 46.25973 6.14096 1742 ft 134 kts 226°
2026-05-03 21:13 46.25321 6.13135 1564 ft 135 kts 227°
2026-05-03 21:13 46.24679 6.12176 1418 ft 132 kts 226°
2026-05-03 21:13 46.24156 6.11406 1398 ft 67 kts 226°
2026-05-03 21:13 46.23918 6.11062 1405 ft 45 kts 225°
2026-05-03 21:14 46.23732 6.10807 1399 ft 15 kts 209°
2026-05-03 21:14 46.23630 6.10739 1402 ft 17 kts 198°
2026-05-03 21:14 46.23506 6.10689 1398 ft 20 kts 197°
2026-05-03 21:14 46.23392 6.10740 1392 ft 18 kts 133°
2026-05-03 21:15 46.23359 6.10845 1401 ft 10 kts 54°
2026-05-03 21:15 46.23400 6.10917 1387 ft 9 kts 46°
2026-05-03 21:15 46.23422 6.10977 1391 ft 6 kts 107°
2026-05-03 21:15 46.23399 6.11014 1403 ft 4 kts 134°
2026-05-03 21:16 46.23388 6.11030 1397 ft 0 kts 135°
2026-05-03 21:16 46.23373 6.11053 1400 ft 0 kts 135°